[[{"header":{"parameterUnit":"m.s-1","parameterCategory":2,"la1":30.2991,"la2":30.254,"lo1":-89.0895,"lo2":-89.0444,"dx":0.0017,"dy":0.0017,"nx":28,"ny":28,"refTime":"2022-12-12T03:00:00:Z","depth":"0","parameterNumber":2,"parameterNumberName":"U-component_of_CURRENTS"},"data":[0,0,0,0,0,0,0,0,0,0,0,0,0,0,0,0,0,0,0,0,0,0,0,0,0,0,0,0,0,0,0,0,0,0,0,0,0,0,0,0,0,0,0,0,0,0,0,0,0,0,0,0,0,0,0,0,0,0,-0.4396,-0.4396,0,-0.434,-0.4338,-0.4337,-0.4231,-0.423,-0.4229,-0.4228,-0.4014,-0.401,-0.4005,0,0,0,0,0,0,0,0,0,0,0,0,0,-0.4257,-0.4261,-0.4396,-0.4396,-0.4396,-0.434,-0.4338,-0.4337,-0.4231,-0.423,-0.4228,-0.4227,-0.4016,-0.401,-0.4005,0,0,0,0,0,0,0,0,0,0,0,0,0,-0.4262,-0.4262,-0.4396,-0.4344,-0.434,-0.434,-0.4338,-0.4336,-0.4231,-0.423,-0.4228,-0.4226,-0.4017,-0.4011,-0.4004,-0.3995,0,0,-0.3983,-0.398,0,0,0,0,0,0,0,0,-0.4262,-0.4266,-0.4352,-0.4348,-0.4343,-0.43,-0.4212,-0.4218,-0.4232,-0.4262,-0.4228,-0.4226,-0.4103,-0.4089,-0.407,-0.3985,-0.3975,-0.3982,-0.3978,-0.3975,-0.3973,0,0,0,0,0,0,0,-0.4262,-0.4267,-0.4363,-0.4352,-0.4347,-0.4272,-0.4271,-0.4211,-0.4182,-0.4259,-0.4254,-0.4264,-0.4098,-0.4077,-0.4064,-0.3972,-0.3982,-0.3976,-0.3972,-0.3969,-0.3877,-0.3879,0,0,0,0,0,0,-0.43,-0.4268,-0.4365,-0.4363,-0.4309,-0.4277,-0.4276,-0.4307,-0.4186,-0.417,-0.4266,-0.426,-0.409,-0.4072,-0.4056,-0.4055,-0.3975,-0.3968,-0.3964,-0.3875,-0.3878,-0.3879,0,0,0,0,0,0,-0.4298,-0.431,-0.4368,-0.432,-0.4323,-0.4284,-0.4318,-0.4307,-0.4285,-0.4195,-0.4173,-0.4257,-0.4087,-0.4065,-0.4022,-0.4045,-0.3965,-0.3959,-0.3873,-0.3876,-0.3878,-0.4042,0,0,0,0,0,0,-0.4294,-0.431,-0.4335,-0.4324,-0.4328,-0.4388,-0.4321,-0.4308,-0.4299,-0.429,-0.418,-0.4158,-0.4084,-0.4033,-0.4015,-0.4034,-0.3953,-0.3871,-0.3875,-0.3878,-0.4035,-0.405,-0.4063,0,0,0,0,0,-0.429,-0.4342,-0.4337,-0.4348,-0.4368,-0.4391,-0.4386,-0.4342,-0.4301,-0.431,-0.4238,-0.4162,-0.404,-0.403,-0.4008,-0.4025,-0.387,-0.3874,-0.3877,-0.4028,-0.4047,-0.4063,0,0,0,0,0,0,-0.4281,-0.4337,-0.433,-0.4393,-0.4401,-0.4378,-0.4381,-0.4355,-0.4305,-0.4282,-0.4183,-0.4159,-0.4125,-0.4061,-0.4051,-0.401,-0.3943,-0.3942,-0.4065,-0.4081,-0.4095,-0.409,-0.3948,0,0,0,0,0,-0.4301,-0.4359,-0.4382,-0.4428,-0.4438,-0.4409,-0.4408,-0.4386,-0.4351,-0.4326,-0.4258,-0.4182,-0.4127,-0.4094,-0.4032,-0.4014,-0.3939,-0.4011,-0.4025,-0.4038,-0.402,-0.3992,-0.4002,-0.3892,-0.3892,-0.3892,0,0,-0.4305,-0.4347,-0.4374,-0.4431,-0.4423,-0.4451,-0.4401,-0.4415,-0.4424,-0.431,-0.4289,-0.4225,-0.4133,-0.4111,-0.4091,-0.4059,-0.4025,-0.4043,-0.4054,-0.4029,-0.3997,-0.4007,-0.4017,-0.3895,-0.3894,-0.3894,0,0,-0.4349,-0.4386,-0.4443,-0.4466,-0.4492,-0.4482,-0.4496,-0.4486,-0.4465,-0.4455,-0.4373,-0.4336,-0.425,-0.4201,-0.416,-0.4218,-0.4101,-0.4196,-0.4263,-0.4238,-0.4246,-0.4253,-0.4151,-0.4148,-0.4207,-0.4207,-0.4208,0,-0.4343,-0.4434,-0.4456,-0.4511,-0.4532,-0.4506,-0.4548,-0.4535,-0.4509,-0.4502,-0.4466,-0.4369,-0.4293,-0.4268,-0.4279,-0.4249,-0.4186,-0.4209,-0.4257,-0.4262,-0.4266,-0.416,-0.4154,-0.4216,-0.4215,-0.4214,-0.4213,0,-0.4424,-0.4492,-0.4526,-0.4593,-0.4614,-0.4652,-0.4653,-0.4656,-0.4627,-0.461,-0.4587,-0.4506,-0.4435,-0.4429,-0.4357,-0.4356,-0.4284,-0.428,-0.4217,-0.4287,-0.4171,-0.4161,-0.4228,-0.4225,-0.4222,-0.422,0,0,-0.4406,-0.4557,-0.4565,-0.4619,-0.4664,-0.4693,-0.4716,-0.4737,-0.4729,-0.4721,-0.4697,-0.4651,-0.4594,-0.4542,-0.4473,-0.4458,-0.4421,-0.438,-0.4374,-0.4281,-0.4305,-0.402,-0.398,-0.4435,-0.4435,-0.4435,-0.4204,0,-0.445,-0.4604,-0.4643,-0.4738,-0.481,-0.4801,-0.4817,-0.4825,-0.4798,-0.4764,-0.4722,-0.4666,-0.4643,-0.4587,-0.4577,-0.4428,-0.4407,-0.4479,-0.4244,-0.4235,-0.3978,-0.3964,-0.3841,-0.3604,-0.4194,-0.4192,-0.4191,0,-0.4505,-0.4608,-0.4741,-0.4841,-0.4859,-0.4885,-0.4898,-0.4908,-0.4864,-0.483,-0.4799,-0.4727,-0.4658,-0.4634,-0.4488,-0.4531,-0.4426,-0.4349,-0.4339,-0.4002,-0.3932,-0.3632,-0.3564,-0.3567,-0.4175,-0.4176,-0.4177,0,-0.4525,-0.4666,-0.4785,-0.4823,-0.4919,-0.4936,-0.4947,-0.4929,-0.4871,-0.485,-0.4754,-0.4742,-0.4609,-0.4569,-0.4342,-0.4428,-0.4134,-0.4239,-0.3905,-0.3881,-0.3685,-0.3643,-0.3588,-0.4173,-0.4173,-0.4174,-0.4174,0,-0.4586,-0.4666,-0.4803,-0.487,-0.4896,-0.4969,-0.4932,-0.494,-0.4862,-0.4735,-0.4762,-0.4612,-0.4584,-0.4386,-0.4309,-0.3978,-0.41,-0.387,-0.3799,-0.3731,-0.3698,-0.3614,-0.3679,-0.4165,-0.4167,-0.4169,-0.417,0,-0.4587,-0.4708,-0.4808,-0.4918,-0.4916,-0.4926,-0.4844,-0.4753,-0.4766,-0.4576,-0.4544,-0.4441,-0.4201,-0.4085,-0.3913,-0.3821,-0.3541,-0.3499,-0.3356,-0.3272,-0.3017,-0.3094,-0.2868,-0.2788,-0.3156,-0.3148,-0.314,0,-0.461,-0.4688,-0.4783,-0.4706,-0.473,-0.4719,-0.4606,-0.4662,-0.4523,-0.4425,-0.4258,-0.4064,-0.3795,-0.3406,-0.3255,-0.3022,-0.3133,-0.2793,-0.2963,-0.2923,-0.2965,-0.3049,-0.301,-0.2778,-0.2769,-0.2761,-0.2755,0,-0.4567,-0.4603,-0.4621,-0.4478,-0.4379,-0.4291,-0.4177,-0.4098,-0.4088,-0.3954,-0.3711,-0.355,-0.3213,-0.2897,-0.2602,-0.2501,-0.274,-0.2619,-0.2666,-0.2696,-0.2701,-0.2614,-0.2975,-0.2685,-0.2692,-0.2697,-0.2701,-0.2703,-0.441,-0.4349,-0.4281,-0.4092,-0.3969,-0.3772,-0.364,-0.3529,-0.3348,-0.3091,-0.3172,-0.2855,-0.271,-0.2281,-0.2144,-0.1969,-0.2147,-0.2016,-0.2118,-0.2208,-0.2118,-0.2239,-0.1815,-0.1817,-0.1818,-0.182,-0.1821,0,-0.4107,-0.3998,-0.3824,-0.3584,-0.3294,-0.3375,-0.3205,-0.3029,-0.2762,-0.2557,-0.2351,-0.216,-0.1918,-0.1846,-0.1699,-0.1576,-0.1642,-0.156,-0.1778,-0.1769,-0.194,-0.1911,-0.1379,-0.1379,-0.1379,-0.1379,-0.1379,-0.1379,-0.3895,-0.362,-0.3496,-0.2914,-0.2744,-0.2408,-0.2305,-0.2165,-0.2003,-0.1623,-0.1447,-0.1347,-0.1509,-0.1686,-0.1588,-0.1494,-0.1551,-0.142,-0.1492,-0.1774,-0.1832,-0.1887,-0.1877,-0.1347,-0.1347,-0.1294,-0.1294,-0.1294]},{"header":{"parameterUnit":"m.s-1","parameterCategory":2,"la1":30.2991,"la2":30.254,"lo1":-89.0895,"lo2":-89.0444,"dx":0.0017,"dy":0.0017,"nx":28,"ny":28,"refTime":"2022-12-12T03:00:00:Z","depth":"0","parameterNumber":3,"parameterNumberName":"V-component_of_CURRENTS"},"data":[0,0,0,0,0,0,0,0,0,0,0,0,0,0,0,0,0,0,0,0,0,0,0,0,0,0,0,0,0,0,0,0,0,0,0,0,0,0,0,0,0,0,0,0,0,0,0,0,0,0,0,0,0,0,0,0,0,0,-0.0157,-0.0156,0,0.0008,0.001,0.0012,0.0092,0.0092,0.0091,0.0091,0.0264,0.0268,0.0273,0,0,0,0,0,0,0,0,0,0,0,0,0,-0.0345,-0.0342,-0.0157,-0.0155,-0.0154,0.0008,0.001,0.0013,0.0092,0.0092,0.0091,0.0091,0.0262,0.0268,0.0274,0,0,0,0,0,0,0,0,0,0,0,0,0,-0.0228,-0.0341,-0.0158,-0.0096,-0.0089,0.0007,0.001,0.0013,0.0092,0.0092,0.0091,0.0091,0.026,0.0267,0.0274,0.0327,0,0,0.0297,0.03,0,0,0,0,0,0,0,0,-0.0235,-0.0221,-0.0107,-0.01,-0.0092,0.0027,0.0008,0.0118,0.0092,0.0025,0.0091,0.0091,0.0184,0.0198,0.0233,0.0335,0.0342,0.0297,0.0302,0.0305,0.0307,0,0,0,0,0,0,0,-0.0243,-0.0227,-0.009,-0.0105,-0.0096,-0.0056,-0.0041,0.0029,0.0107,0.0031,0.0037,0.0052,0.0189,0.0225,0.0237,0.0345,0.0297,0.0303,0.0308,0.0311,0.0501,0.0501,0,0,0,0,0,0,-0.027,-0.0235,-0.0095,-0.0085,-0.0168,-0.0053,-0.0035,-0.0009,0.0106,0.0122,0.0052,0.0055,0.0213,0.0229,0.0243,0.029,0.0305,0.0311,0.0316,0.05,0.0501,0.0502,0,0,0,0,0,0,-0.0274,-0.0258,-0.0102,-0.0159,-0.0136,-0.005,-0.0021,-0.0006,0.003,0.0121,0.0138,0.007,0.0213,0.0233,0.0306,0.0298,0.0315,0.0321,0.0499,0.05,0.0501,0.0398,0,0,0,0,0,0,-0.028,-0.0261,-0.0254,-0.016,-0.0134,-0.0055,-0.002,-0.0002,0.0038,0.0044,0.0143,0.0159,0.0215,0.0295,0.0313,0.0308,0.0327,0.0498,0.05,0.0501,0.0401,0.0395,0.0391,0,0,0,0,0,-0.0287,-0.0286,-0.0255,-0.0238,-0.0126,-0.0055,-0.0038,0.0023,0.0039,0.0054,0.0123,0.0156,0.0316,0.0302,0.0323,0.032,0.0498,0.0499,0.0501,0.0403,0.0396,0.0391,0,0,0,0,0,0,-0.037,-0.0274,-0.0239,-0.0209,-0.014,-0.0043,-0.003,0.0018,0.0087,0.0086,0.0173,0.0194,0.0254,0.0309,0.0291,0.0381,0.041,0.0416,0.0328,0.0323,0.0318,0.0285,0.0333,0,0,0,0,0,-0.0383,-0.0354,-0.0257,-0.0235,-0.0207,-0.0118,-0.0083,-0.0038,0.0036,0.0065,0.0138,0.0213,0.028,0.0316,0.0387,0.0439,0.0488,0.0452,0.0447,0.0442,0.0432,0.0483,0.0481,0.0507,0.0507,0.0507,0,0,-0.0414,-0.0356,-0.0342,-0.0251,-0.0197,-0.0163,-0.0098,-0.0054,-0.0024,0.0073,0.0128,0.0202,0.0293,0.035,0.0381,0.0391,0.0468,0.0444,0.0439,0.0431,0.0485,0.0482,0.0479,0.0508,0.0508,0.0508,0,0,-0.0469,-0.0406,-0.0404,-0.0348,-0.0269,-0.0206,-0.0198,-0.0098,-0.0055,0.0016,0.0086,0.0155,0.0264,0.0325,0.0369,0.0385,0.0443,0.0406,0.0351,0.0401,0.0398,0.0397,0.0476,0.0482,0.0399,0.0399,0.0399,0,-0.0515,-0.049,-0.0396,-0.0377,-0.0347,-0.0234,-0.0232,-0.016,-0.0049,-0.0025,0.0015,0.0164,0.025,0.0308,0.0322,0.037,0.0415,0.0358,0.0391,0.039,0.039,0.0471,0.0479,0.0394,0.0395,0.0395,0.0396,0,-0.0563,-0.0543,-0.0541,-0.0476,-0.0424,-0.0406,-0.0296,-0.0248,-0.0181,-0.0113,-0.0037,0.0086,0.0163,0.021,0.0279,0.0319,0.0359,0.0376,0.0392,0.038,0.0469,0.0479,0.0387,0.0389,0.039,0.0392,0,0,-0.0685,-0.0597,-0.0601,-0.0592,-0.0481,-0.0451,-0.0396,-0.0325,-0.0326,-0.0192,-0.0192,-0.0026,0.0031,0.0087,0.0178,0.0242,0.0308,0.0304,0.0308,0.036,0.0436,0.0498,0.0516,0.0318,0.0319,0.032,0.0504,0,-0.0765,-0.0772,-0.0692,-0.0699,-0.0696,-0.0577,-0.0549,-0.0464,-0.0385,-0.0352,-0.021,-0.0156,-0.0013,0.0011,0.0098,0.0234,0.0326,0.0258,0.046,0.0467,0.0504,0.0526,0.0551,0.0719,0.0515,0.0516,0.0518,0,-0.0851,-0.0842,-0.0866,-0.0828,-0.0819,-0.0797,-0.0752,-0.0704,-0.0606,-0.055,-0.0456,-0.0354,-0.0222,-0.0118,0.0133,0.0076,0.0258,0.0384,0.0393,0.0489,0.0546,0.0698,0.0746,0.0922,0.0534,0.0533,0.0531,0,-0.0994,-0.0971,-0.1,-0.0979,-0.0908,-0.0905,-0.0866,-0.0777,-0.0755,-0.0673,-0.065,-0.0504,-0.0412,-0.0207,0.0117,0.0103,0.0391,0.0396,0.0639,0.0647,0.0728,0.0741,0.0949,0.0586,0.0586,0.0585,0.0584,0,-0.1113,-0.1141,-0.1074,-0.1087,-0.1143,-0.1037,-0.1074,-0.1015,-0.0953,-0.0912,-0.0759,-0.0664,-0.0428,-0.0213,0.0049,0.0393,0.0355,0.064,0.0694,0.0699,0.0706,0.0912,0.0978,0.0592,0.059,0.0589,0.0588,0,-0.1256,-0.1212,-0.125,-0.1211,-0.1204,-0.1239,-0.1191,-0.1202,-0.1117,-0.1061,-0.1029,-0.0799,-0.0486,-0.0209,0.014,0.0329,0.0749,0.0778,0.0786,0.0837,0.1152,0.121,0.1456,0.1578,0.1005,0.1007,0.101,0,-0.1332,-0.1358,-0.1353,-0.1369,-0.135,-0.1369,-0.1368,-0.1298,-0.1267,-0.1071,-0.1032,-0.0756,-0.0453,0.0051,0.0386,0.0793,0.0959,0.103,0.1007,0.1185,0.129,0.131,0.1395,0.1096,0.1099,0.1101,0.1103,0,-0.147,-0.1457,-0.1473,-0.1493,-0.1504,-0.1524,-0.1493,-0.1497,-0.1353,-0.1207,-0.0912,-0.0662,-0.0191,0.0276,0.072,0.0957,0.1119,0.1087,0.1265,0.1376,0.1417,0.1554,0.0979,0.1123,0.1121,0.1119,0.1118,0.1117,-0.1562,-0.1598,-0.1579,-0.1592,-0.161,-0.1597,-0.1578,-0.1423,-0.1277,-0.0872,-0.0733,-0.0138,0.0183,0.083,0.1075,0.1444,0.1389,0.1541,0.1601,0.1609,0.1707,0.1187,0.1383,0.1383,0.1383,0.1382,0.1382,0,-0.1639,-0.1633,-0.1655,-0.1651,-0.1653,-0.1644,-0.1582,-0.1418,-0.1094,-0.0576,-0.0133,0.0529,0.0989,0.1341,0.1721,0.1927,0.1971,0.202,0.2054,0.2123,0.1671,0.1655,0.1924,0.1924,0.1924,0.1924,0.1924,0.1923,-0.1669,-0.1677,-0.1648,-0.164,-0.1638,-0.1607,-0.1546,-0.1144,-0.073,0.0146,0.0798,0.1223,0.1493,0.1955,0.2332,0.2368,0.2577,0.2528,0.2668,0.2346,0.2305,0.2266,0.2269,0.2662,0.2663,0.3091,0.3096,0.3099]}],[{"header":{"parameterUnit":"m.s-1","parameterCategory":2,"la1":30.2991,"la2":30.254,"lo1":-89.0895,"lo2":-89.0444,"dx":0.0017,"dy":0.0017,"nx":28,"ny":28,"refTime":"2022-12-12T03:00:00:Z","depth":"2","parameterNumber":2,"parameterNumberName":"U-component_of_CURRENTS"},"data":[0,0,0,0,0,0,0,0,0,0,0,0,0,0,0,0,0,0,0,0,0,0,0,0,0,0,0,0,0,0,0,0,0,0,0,0,0,0,0,0,0,0,0,0,0,0,0,0,0,0,0,0,0,0,0,0,0,0,-0.258,-0.2581,0,-0.2647,-0.2647,-0.2647,-0.2643,-0.2643,-0.2642,-0.2642,-0.2867,-0.2874,-0.288,0,0,0,0,0,0,0,0,0,0,0,0,0,-0.2408,-0.2411,-0.258,-0.2581,-0.2582,-0.2647,-0.2647,-0.2647,-0.2643,-0.2643,-0.2642,-0.2642,-0.2865,-0.2873,-0.288,0,0,0,0,0,0,0,0,0,0,0,0,0,-0.2474,-0.2412,-0.2579,-0.2592,-0.2595,-0.2647,-0.2647,-0.2648,-0.2643,-0.2643,-0.2642,-0.2641,-0.2863,-0.2872,-0.2882,-0.2954,0,0,-0.2911,-0.2915,0,0,0,0,0,0,0,0,-0.2471,-0.248,-0.2589,-0.2592,-0.2594,-0.2641,-0.2669,-0.276,-0.2644,-0.2619,-0.2642,-0.2641,-0.2811,-0.2825,-0.2828,-0.2965,-0.2975,-0.2912,-0.2918,-0.2922,-0.2925,0,0,0,0,0,0,0,-0.2466,-0.2477,-0.26,-0.2591,-0.2594,-0.2582,-0.259,-0.2685,-0.2716,-0.2621,-0.2622,-0.2639,-0.2812,-0.2818,-0.2834,-0.2978,-0.2912,-0.292,-0.2926,-0.293,-0.3156,-0.3156,0,0,0,0,0,0,-0.2473,-0.2473,-0.2598,-0.2603,-0.2536,-0.2586,-0.2595,-0.2622,-0.2712,-0.2725,-0.264,-0.2639,-0.2802,-0.2823,-0.2842,-0.2953,-0.2922,-0.2931,-0.2936,-0.3156,-0.3156,-0.3156,0,0,0,0,0,0,-0.2469,-0.2484,-0.2596,-0.2543,-0.2557,-0.259,-0.262,-0.2624,-0.2654,-0.2725,-0.274,-0.2669,-0.2803,-0.2829,-0.2971,-0.2961,-0.2935,-0.2944,-0.3156,-0.3156,-0.3156,-0.3164,0,0,0,0,0,0,-0.2464,-0.2482,-0.2507,-0.2544,-0.2561,-0.263,-0.2622,-0.2626,-0.2667,-0.2666,-0.2757,-0.2774,-0.2804,-0.2957,-0.2981,-0.2974,-0.2951,-0.3155,-0.3156,-0.3156,-0.3163,-0.3164,-0.3165,0,0,0,0,0,-0.2458,-0.2486,-0.2508,-0.2524,-0.2593,-0.2631,-0.2638,-0.2654,-0.2669,-0.2679,-0.2771,-0.2772,-0.2972,-0.2968,-0.2995,-0.2991,-0.3155,-0.3156,-0.3156,-0.3163,-0.3164,-0.3165,0,0,0,0,0,0,-0.239,-0.2491,-0.2515,-0.2564,-0.2601,-0.2633,-0.2646,-0.2676,-0.275,-0.2751,-0.2833,-0.2859,-0.2961,-0.2989,-0.2982,-0.3049,-0.3041,-0.3048,-0.3037,-0.3039,-0.304,-0.2913,-0.2959,0,0,0,0,0,-0.24,-0.2463,-0.2529,-0.256,-0.2586,-0.2627,-0.265,-0.2656,-0.2724,-0.2752,-0.2871,-0.2939,-0.2978,-0.3025,-0.3089,-0.3172,-0.3138,-0.3165,-0.3166,-0.3167,-0.3079,-0.3127,-0.3124,-0.3158,-0.3158,-0.3158,0,0,-0.2384,-0.2441,-0.2478,-0.2554,-0.258,-0.2607,-0.2636,-0.2658,-0.2675,-0.2774,-0.29,-0.2981,-0.3007,-0.3078,-0.3119,-0.3107,-0.3132,-0.3168,-0.3169,-0.3077,-0.3127,-0.3124,-0.3121,-0.3158,-0.3158,-0.3158,0,0,-0.236,-0.2432,-0.2473,-0.2526,-0.2578,-0.2589,-0.2609,-0.2701,-0.2731,-0.2845,-0.2899,-0.2978,-0.3118,-0.3115,-0.3115,-0.3162,-0.3149,-0.3192,-0.3094,-0.3146,-0.3142,-0.3139,-0.3057,-0.3047,-0.318,-0.318,-0.318,0,-0.2349,-0.2399,-0.2479,-0.2527,-0.2554,-0.259,-0.2604,-0.2637,-0.2778,-0.2823,-0.2874,-0.3042,-0.3089,-0.3097,-0.3075,-0.3156,-0.3153,-0.3097,-0.3146,-0.3142,-0.3138,-0.3056,-0.3044,-0.3181,-0.3181,-0.3181,-0.3181,0,-0.2371,-0.2406,-0.2426,-0.2504,-0.2531,-0.255,-0.2601,-0.2683,-0.2743,-0.2787,-0.2887,-0.2976,-0.3051,-0.3076,-0.3069,-0.3063,-0.3055,-0.316,-0.314,-0.3135,-0.3048,-0.3035,-0.3182,-0.3181,-0.3181,-0.3181,0,0,-0.2382,-0.2436,-0.2462,-0.2459,-0.2524,-0.2541,-0.2579,-0.2618,-0.2659,-0.2778,-0.2833,-0.2867,-0.2934,-0.2929,-0.2987,-0.2983,-0.294,-0.3031,-0.3034,-0.2935,-0.2966,-0.2891,-0.2869,-0.31,-0.3099,-0.3098,-0.2903,0,-0.2379,-0.2423,-0.2464,-0.2471,-0.2463,-0.2531,-0.2578,-0.2619,-0.267,-0.2767,-0.2782,-0.286,-0.2869,-0.2923,-0.2915,-0.2961,-0.2912,-0.2973,-0.2989,-0.2984,-0.2914,-0.2856,-0.2669,-0.2476,-0.289,-0.2888,-0.2887,0,-0.2386,-0.2412,-0.2415,-0.2429,-0.2451,-0.2474,-0.254,-0.2586,-0.2667,-0.2728,-0.2769,-0.2824,-0.2793,-0.2848,-0.2815,-0.2874,-0.2861,-0.2873,-0.2872,-0.2768,-0.2887,-0.2555,-0.2437,-0.2865,-0.2867,-0.2869,-0.287,0,-0.2299,-0.2363,-0.2346,-0.2374,-0.2424,-0.2455,-0.2496,-0.2578,-0.2626,-0.2696,-0.274,-0.2758,-0.2781,-0.2783,-0.2768,-0.2812,-0.2733,-0.2837,-0.2721,-0.2713,-0.252,-0.2498,-0.2774,-0.2774,-0.2774,-0.2775,-0.2775,0,-0.225,-0.2252,-0.2319,-0.232,-0.2352,-0.2406,-0.2448,-0.2526,-0.2612,-0.265,-0.2708,-0.2728,-0.2779,-0.2761,-0.2738,-0.2651,-0.272,-0.2613,-0.2657,-0.2515,-0.2496,-0.2826,-0.2835,-0.2767,-0.2769,-0.2771,-0.2772,0,-0.2122,-0.2187,-0.2164,-0.2244,-0.228,-0.2308,-0.2416,-0.2467,-0.2558,-0.2604,-0.2624,-0.2685,-0.2647,-0.2651,-0.264,-0.2605,-0.2557,-0.252,-0.2268,-0.2285,-0.2478,-0.249,-0.231,-0.2306,-0.2302,-0.2299,-0.2296,0,-0.2045,-0.2011,-0.2086,-0.2128,-0.2166,-0.2234,-0.2298,-0.2423,-0.247,-0.2567,-0.2578,-0.2569,-0.2521,-0.2427,-0.2381,-0.2274,-0.2419,-0.2067,-0.2104,-0.2367,-0.243,-0.2447,-0.2463,-0.1823,-0.1817,-0.1812,-0.1808,0,-0.1882,-0.1919,-0.1941,-0.1998,-0.207,-0.2135,-0.2221,-0.2254,-0.2398,-0.2411,-0.2407,-0.2364,-0.2291,-0.2103,-0.2018,-0.1957,-0.207,-0.1958,-0.2325,-0.2003,-0.1904,-0.1968,-0.2,-0.1762,-0.1767,-0.177,-0.1773,-0.1774,-0.1769,-0.1778,-0.1815,-0.1868,-0.1958,-0.2006,-0.1984,-0.2076,-0.2091,-0.2087,-0.2167,-0.2036,-0.2019,-0.1753,-0.1662,-0.16,-0.1744,-0.1681,-0.1699,-0.1721,-0.1733,-0.1639,-0.1438,-0.1441,-0.1443,-0.1445,-0.1447,0,-0.1619,-0.1667,-0.169,-0.1758,-0.1777,-0.1861,-0.1912,-0.1857,-0.1793,-0.1826,-0.1767,-0.1556,-0.1414,-0.141,-0.1234,-0.1205,-0.1215,-0.1161,-0.1181,-0.1225,-0.1264,-0.1257,-0.0833,-0.0831,-0.083,-0.0829,0,0,-0.1573,-0.1544,-0.156,-0.155,-0.1592,-0.1531,-0.1508,-0.1441,-0.1414,-0.1307,-0.124,-0.1321,-0.1346,-0.1093,-0.1032,-0.0903,-0.1056,-0.085,-0.1336,-0.1401,-0.1438,-0.1549,-0.1585,0,0,0,0,0]},{"header":{"parameterUnit":"m.s-1","parameterCategory":2,"la1":30.2991,"la2":30.254,"lo1":-89.0895,"lo2":-89.0444,"dx":0.0017,"dy":0.0017,"nx":28,"ny":28,"refTime":"2022-12-12T03:00:00:Z","depth":"2","parameterNumber":3,"parameterNumberName":"V-component_of_CURRENTS"},"data":[0,0,0,0,0,0,0,0,0,0,0,0,0,0,0,0,0,0,0,0,0,0,0,0,0,0,0,0,0,0,0,0,0,0,0,0,0,0,0,0,0,0,0,0,0,0,0,0,0,0,0,0,0,0,0,0,0,0,-0.0357,-0.0356,0,-0.0212,-0.021,-0.0208,-0.0108,-0.0107,-0.0106,-0.0106,0.0384,0.0396,0.0408,0,0,0,0,0,0,0,0,0,0,0,0,0,-0.043,-0.043,-0.0358,-0.0356,-0.0354,-0.0212,-0.021,-0.0208,-0.0108,-0.0107,-0.0106,-0.0105,0.0379,0.0394,0.0409,0,0,0,0,0,0,0,0,0,0,0,0,0,-0.0353,-0.043,-0.0358,-0.0288,-0.028,-0.0212,-0.021,-0.0207,-0.0108,-0.0107,-0.0106,-0.0105,0.0375,0.0393,0.0411,0.0505,0,0,0.0468,0.0476,0,0,0,0,0,0,0,0,-0.0358,-0.035,-0.03,-0.0292,-0.0284,-0.0178,-0.0056,0.0048,-0.0108,-0.0173,-0.0106,-0.0105,0.0227,0.0257,0.0279,0.0528,0.0549,0.0469,0.0481,0.0489,0.0494,0,0,0,0,0,0,0,-0.0363,-0.0355,-0.0299,-0.0298,-0.0288,-0.0223,-0.0212,-0.0037,0.0027,-0.0167,-0.0159,-0.0145,0.0234,0.026,0.0292,0.0556,0.0469,0.0485,0.0497,0.0504,0.0969,0.097,0,0,0,0,0,0,-0.039,-0.0361,-0.0304,-0.0295,-0.032,-0.0223,-0.021,-0.0212,0.0018,0.005,-0.0146,-0.0141,0.0228,0.027,0.031,0.0477,0.0489,0.0506,0.0517,0.0968,0.0969,0.0971,0,0,0,0,0,0,-0.0393,-0.0387,-0.0309,-0.0324,-0.0309,-0.0224,-0.0226,-0.021,-0.0172,0.0029,0.0069,-0.0123,0.023,0.0284,0.0476,0.0496,0.0514,0.0531,0.0967,0.0968,0.097,0.0787,0,0,0,0,0,0,-0.0396,-0.039,-0.0395,-0.0327,-0.031,-0.0288,-0.0226,-0.0208,-0.0165,-0.0157,0.0063,0.0107,0.0235,0.0447,0.0494,0.0522,0.0546,0.0965,0.0967,0.0969,0.0791,0.0782,0.0774,0,0,0,0,0,-0.0399,-0.0426,-0.0397,-0.0389,-0.0323,-0.029,-0.0276,-0.0209,-0.0165,-0.0166,0.0002,0.0101,0.0495,0.0464,0.0519,0.0552,0.0964,0.0967,0.0969,0.0795,0.0784,0.0774,0,0,0,0,0,0,-0.0469,-0.0416,-0.0383,-0.0393,-0.035,-0.0273,-0.0264,-0.0212,-0.0089,-0.0064,0.0133,0.019,0.0373,0.0487,0.0448,0.0692,0.0741,0.0755,0.0589,0.0581,0.0572,0.044,0.0561,0,0,0,0,0,-0.0487,-0.0491,-0.0426,-0.0438,-0.0416,-0.0336,-0.0309,-0.027,-0.0158,-0.0107,0.0082,0.0265,0.0423,0.0517,0.0692,0.0827,0.0864,0.0881,0.0872,0.0864,0.0794,0.0896,0.0888,0.098,0.098,0.098,0,0,-0.0517,-0.049,-0.0491,-0.0452,-0.0407,-0.0381,-0.0318,-0.0297,-0.026,-0.0061,0.0098,0.0269,0.046,0.0611,0.0699,0.0708,0.0854,0.0867,0.0858,0.0792,0.0898,0.0888,0.0879,0.0981,0.0981,0.0981,0,0,-0.0582,-0.0556,-0.057,-0.0529,-0.0477,-0.0431,-0.0426,-0.0316,-0.0259,-0.0128,0.0045,0.019,0.0464,0.058,0.0668,0.0714,0.0822,0.0812,0.0648,0.0749,0.074,0.0733,0.0727,0.0721,0.0786,0.0786,0.0785,0,-0.0613,-0.0617,-0.0572,-0.0559,-0.0526,-0.0454,-0.0447,-0.0389,-0.0216,-0.0156,-0.0103,0.0249,0.0415,0.0557,0.0557,0.0687,0.0738,0.0666,0.0729,0.0724,0.0719,0.0716,0.0712,0.0777,0.0778,0.0779,0.078,0,-0.0663,-0.0656,-0.0663,-0.0617,-0.0588,-0.0577,-0.0492,-0.0422,-0.0339,-0.0261,-0.0092,0.0104,0.0293,0.0377,0.0468,0.0549,0.0591,0.0719,0.0731,0.0697,0.0698,0.0696,0.0765,0.0768,0.077,0.0773,0,0,-0.075,-0.0706,-0.0705,-0.0681,-0.0612,-0.0594,-0.0547,-0.048,-0.0435,-0.0301,-0.023,-0.0031,0.0065,0.0165,0.0334,0.0376,0.0375,0.05,0.051,0.0444,0.0528,0.06,0.0606,0.054,0.054,0.054,0.0524,0,-0.0793,-0.0794,-0.0757,-0.0742,-0.0724,-0.0645,-0.0609,-0.054,-0.045,-0.0345,-0.0238,-0.0086,-0.0008,0.0091,0.0137,0.0371,0.037,0.0361,0.0611,0.0614,0.0646,0.0608,0.0576,0.0567,0.0523,0.0523,0.0522,0,-0.0839,-0.0829,-0.0834,-0.0787,-0.0773,-0.0757,-0.068,-0.0632,-0.0517,-0.0447,-0.0351,-0.0214,-0.0123,-0.004,0.015,0.0157,0.0279,0.0396,0.0404,0.052,0.0685,0.0611,0.0566,0.052,0.0521,0.0521,0.0521,0,-0.0903,-0.0878,-0.0887,-0.0861,-0.0804,-0.0792,-0.0757,-0.0661,-0.0617,-0.0495,-0.0446,-0.0313,-0.0212,-0.0069,0.0144,0.017,0.0338,0.0441,0.0575,0.058,0.0617,0.0626,0.051,0.051,0.051,0.051,0.051,0,-0.0947,-0.0953,-0.0918,-0.0906,-0.0915,-0.0852,-0.0834,-0.0768,-0.0687,-0.0633,-0.0497,-0.042,-0.0206,-0.006,0.0097,0.0314,0.031,0.0489,0.0586,0.0553,0.0557,0.059,0.0599,0.051,0.051,0.051,0.051,0,-0.101,-0.0995,-0.0989,-0.0945,-0.0942,-0.0939,-0.0897,-0.088,-0.0787,-0.071,-0.0679,-0.05,-0.0301,-0.011,0.015,0.0282,0.0479,0.0556,0.044,0.0525,0.0632,0.0633,0.0657,0.0659,0.0662,0.0663,0.0665,0,-0.1043,-0.1048,-0.1016,-0.1032,-0.1018,-0.101,-0.1017,-0.0941,-0.0909,-0.0742,-0.0714,-0.0516,-0.0343,0.0004,0.027,0.0509,0.0531,0.0614,0.0658,0.0557,0.065,0.0647,0.0645,0.0603,0.0604,0.0605,0.0605,0,-0.1084,-0.1074,-0.106,-0.1092,-0.111,-0.112,-0.1107,-0.1099,-0.099,-0.0892,-0.0723,-0.057,-0.0226,0.0074,0.039,0.0528,0.0574,0.064,0.0606,0.0598,0.0515,0.0604,0.0602,0.0612,0.0611,0.0611,0.061,0.061,-0.1102,-0.111,-0.1104,-0.1137,-0.1177,-0.1213,-0.1207,-0.1166,-0.1094,-0.0913,-0.0754,-0.0486,-0.0196,0.0273,0.0502,0.0686,0.0683,0.0728,0.0721,0.0715,0.0739,0.0669,0.079,0.0791,0.0791,0.0791,0.0791,0,-0.1106,-0.1128,-0.1158,-0.1197,-0.1262,-0.1264,-0.1259,-0.121,-0.1107,-0.0916,-0.0706,-0.0341,-0.0003,0.0272,0.0595,0.0802,0.0763,0.0808,0.0726,0.0718,0.0712,0.0733,0.0784,0.0784,0.0785,0.0786,0,0,-0.1114,-0.1134,-0.1148,-0.1257,-0.1304,-0.1348,-0.1335,-0.1218,-0.1071,-0.0836,-0.0631,-0.0354,0.0005,0.0243,0.0491,0.0648,0.062,0.0644,0.0627,0.0492,0.0483,0.0642,0.0665,0,0,0,0,0]}],[{"header":{"parameterUnit":"m.s-1","parameterCategory":2,"la1":30.2991,"la2":30.254,"lo1":-89.0895,"lo2":-89.0444,"dx":0.0017,"dy":0.0017,"nx":28,"ny":28,"refTime":"2022-12-12T03:00:00:Z","depth":"4","parameterNumber":2,"parameterNumberName":"U-component_of_CURRENTS"},"data":[0,0,0,0,0,0,0,0,0,0,0,0,0,0,0,0,0,0,0,0,0,0,0,0,0,0,0,0,0,0,0,0,0,0,0,0,0,0,0,0,0,0,0,0,0,0,0,0,0,0,0,0,0,0,0,0,0,0,-0.1362,-0.1364,0,-0.1472,-0.1473,-0.1474,-0.1523,-0.1523,-0.1524,-0.1524,-0.1572,-0.1573,-0.1574,0,0,0,0,0,0,0,0,0,0,0,0,0,-0.1235,-0.1237,-0.1362,-0.1364,-0.1365,-0.1472,-0.1473,-0.1475,-0.1523,-0.1523,-0.1524,-0.1524,-0.1571,-0.1573,-0.1574,0,0,0,0,0,0,0,0,0,0,0,0,0,-0.131,-0.1237,-0.1362,-0.1404,-0.1409,-0.1472,-0.1473,-0.1475,-0.1523,-0.1523,-0.1524,-0.1524,-0.1571,-0.1573,-0.1574,-0.1584,0,0,-0.158,-0.1581,0,0,0,0,0,0,0,0,-0.1305,-0.1314,-0.1396,-0.1401,-0.1407,-0.1486,-0.1446,-0.1509,-0.1523,-0.1478,-0.1524,-0.1524,-0.1539,-0.1543,-0.1561,-0.1586,-0.1588,-0.158,-0.1581,-0.1582,-0.1583,0,0,0,0,0,0,0,-0.13,-0.131,-0.1403,-0.1398,-0.1405,-0.1432,-0.1442,-0.1459,-0.1503,-0.1482,-0.1486,-0.1502,-0.1541,-0.156,-0.1563,-0.1589,-0.158,-0.1582,-0.1583,-0.1584,-0.165,-0.1651,0,0,0,0,0,0,-0.1289,-0.1305,-0.14,-0.1407,-0.1358,-0.1434,-0.1445,-0.1459,-0.1505,-0.1513,-0.1502,-0.1504,-0.1556,-0.1561,-0.1565,-0.1625,-0.1582,-0.1584,-0.1585,-0.1649,-0.165,-0.1651,0,0,0,0,0,0,-0.1286,-0.1296,-0.1396,-0.136,-0.1375,-0.1436,-0.1451,-0.1461,-0.1506,-0.1521,-0.1528,-0.154,-0.1557,-0.1562,-0.1596,-0.1625,-0.1585,-0.1586,-0.1649,-0.165,-0.1651,-0.1714,0,0,0,0,0,0,-0.1282,-0.1294,-0.131,-0.1359,-0.1377,-0.1441,-0.1451,-0.1463,-0.1515,-0.152,-0.1555,-0.1559,-0.1557,-0.1594,-0.1598,-0.1627,-0.1588,-0.1648,-0.1649,-0.165,-0.1712,-0.1718,-0.1723,0,0,0,0,0,-0.1277,-0.1302,-0.131,-0.1322,-0.1393,-0.1442,-0.1454,-0.1495,-0.1517,-0.1537,-0.1562,-0.1559,-0.1604,-0.1596,-0.1601,-0.1631,-0.1647,-0.1649,-0.165,-0.1709,-0.1716,-0.1723,0,0,0,0,0,0,-0.1254,-0.1311,-0.132,-0.1361,-0.1399,-0.1451,-0.1484,-0.1513,-0.1552,-0.1566,-0.1574,-0.1579,-0.1615,-0.1613,-0.1604,-0.165,-0.1623,-0.1625,-0.1665,-0.1672,-0.1678,-0.1695,-0.1589,0,0,0,0,0,-0.1255,-0.1291,-0.1336,-0.1369,-0.1391,-0.1442,-0.1473,-0.1504,-0.1543,-0.1563,-0.1584,-0.1604,-0.1621,-0.164,-0.1647,-0.1684,-0.1683,-0.1702,-0.1708,-0.1713,-0.1728,-0.1747,-0.1756,-0.1656,-0.1656,-0.1656,0,0,-0.125,-0.1292,-0.1308,-0.1367,-0.1404,-0.1449,-0.1461,-0.152,-0.1564,-0.156,-0.1622,-0.1624,-0.1633,-0.1666,-0.1682,-0.1674,-0.1739,-0.1715,-0.1719,-0.1732,-0.175,-0.1759,-0.1768,-0.1657,-0.1657,-0.1657,0,0,-0.1266,-0.1301,-0.1335,-0.1374,-0.144,-0.1474,-0.1496,-0.1557,-0.159,-0.1641,-0.1646,-0.1671,-0.1702,-0.1715,-0.1725,-0.1768,-0.1762,-0.1767,-0.1823,-0.1841,-0.185,-0.1858,-0.1866,-0.1874,-0.1778,-0.1778,-0.1779,0,-0.1258,-0.1307,-0.1351,-0.1398,-0.144,-0.1489,-0.1535,-0.1579,-0.1642,-0.1677,-0.1666,-0.1726,-0.1726,-0.1781,-0.1791,-0.1784,-0.179,-0.18,-0.185,-0.1858,-0.1865,-0.1871,-0.188,-0.1782,-0.1781,-0.1781,-0.1781,0,-0.129,-0.134,-0.1368,-0.1442,-0.1494,-0.1542,-0.1608,-0.166,-0.1703,-0.1741,-0.1801,-0.1801,-0.184,-0.1837,-0.1831,-0.1885,-0.1871,-0.185,-0.1837,-0.1879,-0.1883,-0.189,-0.1786,-0.1785,-0.1784,-0.1783,0,0,-0.1229,-0.1362,-0.1368,-0.1427,-0.1523,-0.1575,-0.1656,-0.1738,-0.1804,-0.1843,-0.1913,-0.1934,-0.1942,-0.1953,-0.1946,-0.1962,-0.2005,-0.1936,-0.1935,-0.1951,-0.2047,-0.1877,-0.1868,-0.1997,-0.1999,-0.2,-0.2029,0,-0.1233,-0.133,-0.1397,-0.1498,-0.1558,-0.1642,-0.1716,-0.1806,-0.1865,-0.1939,-0.1964,-0.2012,-0.1986,-0.2005,-0.2023,-0.2004,-0.2028,-0.1999,-0.1998,-0.1998,-0.1847,-0.1872,-0.2006,-0.2035,-0.2036,-0.2037,-0.2038,0,-0.1226,-0.1304,-0.1402,-0.1555,-0.1588,-0.1657,-0.1799,-0.1874,-0.1986,-0.2028,-0.209,-0.2107,-0.2151,-0.2108,-0.213,-0.2116,-0.2098,-0.2076,-0.2077,-0.1902,-0.184,-0.1983,-0.2051,-0.205,-0.2049,-0.2048,-0.2048,0,-0.1174,-0.1306,-0.1394,-0.1441,-0.1612,-0.1682,-0.177,-0.1899,-0.197,-0.2087,-0.213,-0.2193,-0.2209,-0.2215,-0.2174,-0.2165,-0.2176,-0.2153,-0.1992,-0.198,-0.21,-0.2091,-0.218,-0.218,-0.218,-0.218,-0.218,0,-0.1151,-0.1224,-0.1381,-0.1439,-0.1551,-0.1676,-0.1798,-0.1892,-0.2012,-0.2086,-0.217,-0.2199,-0.2235,-0.2241,-0.2213,-0.2111,-0.2211,-0.2005,-0.1975,-0.2124,-0.2117,-0.2105,-0.2096,-0.2181,-0.2181,-0.2181,-0.218,0,-0.1088,-0.1188,-0.1312,-0.1488,-0.154,-0.1628,-0.1802,-0.188,-0.1998,-0.2092,-0.2127,-0.221,-0.2194,-0.2208,-0.2197,-0.2122,-0.2066,-0.2013,-0.2175,-0.2153,-0.1856,-0.1851,-0.1839,-0.1833,-0.1828,-0.1824,-0.1821,0,-0.1066,-0.1123,-0.1323,-0.1394,-0.1478,-0.1613,-0.1698,-0.1853,-0.1923,-0.2067,-0.2089,-0.2125,-0.2155,-0.2003,-0.2034,-0.1974,-0.1941,-0.1927,-0.1887,-0.1849,-0.1822,-0.1824,-0.1825,-0.1813,-0.1812,-0.1811,-0.1809,0,-0.1022,-0.1104,-0.1203,-0.1338,-0.1446,-0.1558,-0.1681,-0.1717,-0.1882,-0.1998,-0.1979,-0.1954,-0.1926,-0.1882,-0.1843,-0.1805,-0.1943,-0.1875,-0.1885,-0.1847,-0.1817,-0.1796,-0.1802,-0.1792,-0.1795,-0.1796,-0.1797,0,-0.0977,-0.1025,-0.1151,-0.1262,-0.1391,-0.146,-0.1548,-0.161,-0.1685,-0.1837,-0.1817,-0.1845,-0.1903,-0.1794,-0.1764,-0.17,-0.1664,-0.162,-0.1642,-0.1662,-0.1583,-0.1518,-0.1376,0,0,0,0,0,-0.0914,-0.0957,-0.1059,-0.118,-0.1302,-0.136,-0.1517,-0.1603,-0.175,-0.1685,-0.1743,-0.1704,-0.1627,-0.164,-0.1527,-0.168,-0.168,-0.1545,-0.1645,-0.1698,-0.1717,-0.1637,0,0,0,0,0,0,-0.0865,-0.0956,-0.1014,-0.1074,-0.1126,-0.1232,-0.1322,-0.1425,-0.1401,-0.154,-0.1493,-0.1583,-0.1521,-0.1633,-0.1476,-0.1482,-0.1509,-0.1568,-0.1563,-0.1686,-0.1704,-0.172,-0.1644,0,0,0,0,0]},{"header":{"parameterUnit":"m.s-1","parameterCategory":2,"la1":30.2991,"la2":30.254,"lo1":-89.0895,"lo2":-89.0444,"dx":0.0017,"dy":0.0017,"nx":28,"ny":28,"refTime":"2022-12-12T03:00:00:Z","depth":"4","parameterNumber":3,"parameterNumberName":"V-component_of_CURRENTS"},"data":[0,0,0,0,0,0,0,0,0,0,0,0,0,0,0,0,0,0,0,0,0,0,0,0,0,0,0,0,0,0,0,0,0,0,0,0,0,0,0,0,0,0,0,0,0,0,0,0,0,0,0,0,0,0,0,0,0,0,-0.043,-0.0429,0,-0.0375,-0.0375,-0.0374,-0.0325,-0.0324,-0.0323,-0.0323,-0.0286,-0.0286,-0.0286,0,0,0,0,0,0,0,0,0,0,0,0,0,-0.0415,-0.0416,-0.043,-0.0429,-0.0428,-0.0376,-0.0375,-0.0374,-0.0325,-0.0324,-0.0323,-0.0322,-0.0286,-0.0286,-0.0286,0,0,0,0,0,0,0,0,0,0,0,0,0,-0.0398,-0.0416,-0.043,-0.0397,-0.0393,-0.0376,-0.0375,-0.0374,-0.0325,-0.0324,-0.0323,-0.0322,-0.0287,-0.0286,-0.0286,-0.0303,0,0,-0.0284,-0.0284,0,0,0,0,0,0,0,0,-0.0399,-0.0399,-0.0402,-0.0399,-0.0395,-0.0355,-0.0356,-0.0351,-0.0325,-0.0352,-0.0323,-0.0322,-0.0311,-0.0309,-0.0302,-0.0301,-0.0299,-0.0284,-0.0284,-0.0283,-0.0283,0,0,0,0,0,0,0,-0.0401,-0.04,-0.0409,-0.0402,-0.0397,-0.0358,-0.0356,-0.0354,-0.0339,-0.0349,-0.0345,-0.0338,-0.0309,-0.0302,-0.03,-0.0299,-0.0284,-0.0283,-0.0283,-0.0283,-0.0297,-0.0298,0,0,0,0,0,0,-0.0411,-0.0402,-0.0411,-0.0408,-0.0394,-0.036,-0.0357,-0.037,-0.0338,-0.0332,-0.0339,-0.0336,-0.0304,-0.0301,-0.0299,-0.0298,-0.0283,-0.0283,-0.0283,-0.0296,-0.0297,-0.0298,0,0,0,0,0,0,-0.0411,-0.0413,-0.0413,-0.0401,-0.0398,-0.0362,-0.0376,-0.0369,-0.0364,-0.033,-0.0324,-0.0341,-0.0303,-0.03,-0.0305,-0.0297,-0.0283,-0.0282,-0.0296,-0.0297,-0.0298,-0.031,0,0,0,0,0,0,-0.0412,-0.0414,-0.0428,-0.0403,-0.04,-0.0417,-0.0377,-0.0369,-0.036,-0.0356,-0.033,-0.0325,-0.0302,-0.0306,-0.0304,-0.0296,-0.0282,-0.0295,-0.0296,-0.0297,-0.0308,-0.0311,-0.0313,0,0,0,0,0,-0.0411,-0.0435,-0.043,-0.043,-0.042,-0.0418,-0.0413,-0.0382,-0.0362,-0.0371,-0.0349,-0.0326,-0.0312,-0.0306,-0.0304,-0.0296,-0.0294,-0.0296,-0.0297,-0.0307,-0.0311,-0.0313,0,0,0,0,0,0,-0.0435,-0.0431,-0.0425,-0.0446,-0.0439,-0.0409,-0.0408,-0.0392,-0.0382,-0.0375,-0.0342,-0.0337,-0.0338,-0.0325,-0.032,-0.0306,-0.0297,-0.0298,-0.0305,-0.0308,-0.031,-0.029,-0.0281,0,0,0,0,0,-0.0449,-0.0468,-0.0454,-0.0474,-0.0469,-0.0442,-0.0436,-0.0421,-0.0406,-0.0399,-0.038,-0.036,-0.0344,-0.0333,-0.0328,-0.0325,-0.0275,-0.0318,-0.032,-0.0322,-0.0306,-0.0228,-0.0221,-0.0303,-0.0303,-0.0303,0,0,-0.0465,-0.0464,-0.0475,-0.048,-0.0466,-0.0462,-0.0437,-0.0436,-0.0427,-0.0399,-0.0389,-0.0378,-0.035,-0.0342,-0.0339,-0.0327,-0.0276,-0.0324,-0.0326,-0.0308,-0.0229,-0.022,-0.0212,-0.0304,-0.0304,-0.0304,0,0,-0.0497,-0.0503,-0.0523,-0.0516,-0.0505,-0.0487,-0.0492,-0.0474,-0.0459,-0.0461,-0.0427,-0.0407,-0.0402,-0.0359,-0.034,-0.0355,-0.0299,-0.0364,-0.0346,-0.0272,-0.0263,-0.0255,-0.0186,-0.0171,-0.0354,-0.0354,-0.0354,0,-0.0514,-0.0534,-0.0529,-0.0533,-0.0522,-0.0501,-0.0505,-0.0489,-0.0476,-0.046,-0.0465,-0.0416,-0.0399,-0.0346,-0.0348,-0.0355,-0.0309,-0.0334,-0.027,-0.0261,-0.0253,-0.0184,-0.0168,-0.0355,-0.0355,-0.0355,-0.0355,0,-0.0546,-0.0558,-0.0565,-0.0562,-0.0557,-0.056,-0.0533,-0.0527,-0.0512,-0.0488,-0.0459,-0.0429,-0.0388,-0.0384,-0.0369,-0.0301,-0.0288,-0.0288,-0.0255,-0.0244,-0.0174,-0.0157,-0.0356,-0.0356,-0.0356,-0.0355,0,0,-0.0593,-0.0591,-0.0594,-0.0591,-0.057,-0.0571,-0.0552,-0.0526,-0.0501,-0.0486,-0.0443,-0.041,-0.0383,-0.0358,-0.0329,-0.0263,-0.017,-0.0251,-0.0246,-0.0168,-0.0002,-0.0045,-0.003,-0.0157,-0.0154,-0.0152,0.0022,0,-0.0617,-0.0637,-0.0625,-0.063,-0.0629,-0.0595,-0.0582,-0.0555,-0.0519,-0.0477,-0.042,-0.0384,-0.0374,-0.0352,-0.0281,-0.0203,-0.0125,-0.0216,-0.0036,-0.003,-0.0057,-0.0012,-0.0142,0.0035,0.0039,0.0042,0.0044,0,-0.0644,-0.0652,-0.0671,-0.0657,-0.0654,-0.0655,-0.0612,-0.0594,-0.052,-0.0491,-0.0421,-0.0379,-0.0278,-0.0281,-0.0102,-0.0163,-0.0078,-0.0015,-0.0007,-0.0025,-0.0041,0.0022,0.0076,0.0073,0.0071,0.0069,0.0067,0,-0.0672,-0.0679,-0.0698,-0.0692,-0.0676,-0.0676,-0.0663,-0.0605,-0.0582,-0.0486,-0.0451,-0.0335,-0.0277,-0.0149,-0.0036,-0.0054,0.0156,0.015,0.02,0.0198,0.0191,0.0181,0.0293,0.0293,0.0293,0.0292,0.0292,0,-0.0686,-0.0703,-0.0718,-0.0723,-0.0741,-0.0714,-0.0707,-0.0666,-0.0603,-0.0559,-0.0461,-0.0395,-0.0243,-0.0119,-0.0007,0.0145,0.0188,0.0226,0.0248,0.0178,0.0164,0.0204,0.0191,0.0299,0.0297,0.0296,0.0295,0,-0.0705,-0.0718,-0.074,-0.0748,-0.0755,-0.0766,-0.0755,-0.0742,-0.0669,-0.0597,-0.0568,-0.0424,-0.0259,-0.011,0.01,0.0171,0.0323,0.0364,0.0282,0.0293,0.0317,0.0301,0.047,0.047,0.047,0.047,0.047,0,-0.0713,-0.073,-0.0767,-0.0796,-0.0806,-0.0821,-0.0836,-0.0785,-0.0757,-0.0612,-0.058,-0.0414,-0.0306,-0.0025,0.0115,0.0343,0.0352,0.0436,0.0382,0.0335,0.034,0.0324,0.0309,0.047,0.047,0.047,0.047,0,-0.072,-0.0746,-0.0763,-0.0832,-0.0868,-0.0893,-0.0897,-0.0877,-0.0792,-0.0727,-0.0558,-0.0397,-0.0216,-0.0022,0.0138,0.0294,0.0387,0.0437,0.0438,0.0389,0.0337,0.0339,0.0324,0.0471,0.0471,0.0471,0.0471,0,-0.0726,-0.0748,-0.0793,-0.0847,-0.0912,-0.0946,-0.0938,-0.0885,-0.084,-0.0667,-0.0614,-0.0392,-0.0262,-0.0046,0.0108,0.0248,0.0283,0.0321,0.0329,0.033,0.0212,0.0121,0.0232,0,0,0,0,0,-0.0714,-0.0749,-0.0808,-0.087,-0.0946,-0.0979,-0.0975,-0.0952,-0.0861,-0.0745,-0.0669,-0.0488,-0.022,-0.0105,0.0032,0.0077,0.0273,0.0238,0.0312,0.0473,0.0472,0.035,0,0,0,0,0,0,-0.071,-0.0763,-0.0797,-0.0892,-0.0946,-0.1014,-0.1013,-0.0953,-0.0873,-0.0755,-0.0616,-0.0481,-0.0239,-0.0305,0.0025,0.007,0.0131,0.0375,0.0378,0.0473,0.0472,0.0472,0.0346,0,0,0,0,0]}]]